Temperature
16 17 18 18 19 19 19 18 17 17 17 17 17 18 19 19 19 19 19 19 19 18 18 17 17 17 17 17 16 16 16 16 16 16 16 17 17 17 17 17 17 17 17
15 16 17 18 18 18 17 17 17 17 17 17 18 18 19 19 19 19 19 19 19 19 18 18 18 17 17 17 17 16 16 16 16 15 15 15 16 17 17 17 17 17 17
14 15 16 16 16 16 16 16 16 17 17 17 18 19 19 19 19 19 19 19 19 19 19 18 18 18 18 18 17 17 17 16 16 15 15 14 14 15 16 17 17 17 17
14 15 16 16 16 16 16 16 16 16 17 17 18 19 19 19 19 18 18 19 19 19 19 19 18 18 18 18 18 17 17 16 16 16 15 14 14 14 14 16 17 17 17
15 15 15 15 15 15 15 16 16 16 16 17 17 17 18 18 18 18 18 18 18 18 18 18 18 18 18 18 18 17 17 16 16 16 15 15 14 14 13 14 16 17 17
15 15 15 15 15 15 15 15 15 16 16 16 16 16 16 16 17 17 17 17 17 17 17 17 17 18 18 18 18 17 17 16 16 16 15 14 14 14 13 13 14 15 17
16 16 16 16 15 15 15 15 15 15 15 15 15 15 15 15 15 15 15 16 16 17 17 17 17 17 17 17 17 17 17 17 16 15 15 14 14 14 14 13 14 14 15
15 15 15 15 15 15 15 15 15 15 14 14 14 14 14 14 14 14 14 14 14 15 15 16 16 16 16 16 16 17 17 16 16 15 15 14 14 14 14 14 13 13 14
16 16 15 15 15 15 15 14 14 14 14 13 13 13 13 13 13 13 13 13 13 13 14 14 15 15 15 15 15 16 16 16 16 15 14 14 14 14 14 14 14 13 13
16 16 16 16 15 15 14 14 14 13 13 13 13 13 12 12 12 12 12 11 12 12 12 13 13 13 14 14 14 15 15 15 15 15 14 14 14 14 14 14 14 14 13
16 16 16 15 15 14 14 14 13 13 13 13 12 12 12 12 11 11 11 11 11 11 11 12 12 12 13 13 13 14 14 15 15 14 14 14 14 14 14 14 14 14 14
16 15 15 14 14 14 13 13 13 13 12 12 12 12 12 11 11 11 11 10 10 10 10 11 11 11 12 12 12 13 13 14 14 14 14 14 14 14 14 14 14 14 14
14 14 14 13 13 13 13 13 12 12 12 12 12 11 11 11 11 11 10 10 10 10 10 10 10 10 11 11 11 12 12 13 13 14 13 14 13 14 14 14 14 14 14
14 13 13 13 13 13 12 12 12 12 12 11 11 11 11 11 10 10 10 10 10 10 10 10 10 10 10 10 11 11 11 12 13 13 13 13 13 14 14 14 14 14 14
13 13 13 13 12 12 12 12 12 11 11 11 11 11 11 10 10 10 10 10 9 9 9 9 9 9 9 9 10 10 10 11 12 12 13 13 13 13 14 14 14 14 14
13 13 13 12 12 12 12 12 11 11 11 11 11 11 10 10 10 10 9 9 9 9 9 9 9 9 9 9 9 9 10 10 11 12 12 13 13 13 13 14 14 14 14
13 13 12 12 12 12 11 11 11 11 11 11 11 10 10 10 10 10 9 9 9 8 8 9 9 9 9 9 9 9 9 10 10 11 12 12 13 13 13 13 13 14 14
12 12 11 11 11 10 10 10 10 10 10 10 10 10 10 10 9 9 9 9 8 8 8 8 8 9 9 9 9 9 9 9 10 10 11 12 12 13 13 13 13 13 13
11 10 10 9 9 9 8 8 8 8 8 8 8 8 9 9 9 8 8 8 8 8 8 8 8 8 8 9 9 9 9 9 9 10 10 11 12 12 13 13 13 13 12
10 9 8 8 7 7 6 6 5 5 5 5 6 6 7 7 7 7 7 7 7 7 7 7 7 8 8 8 9 9 9 9 9 10 10 11 11 12 12 12 13 12 12
8 8 7 6 6 5 5 4 4 4 4 4 4 4 5 5 6 6 6 6 6 6 7 7 7 7 8 8 8 9 9 9 9 9 10 10 11 11 12 12 12 13 12
7 6 6 5 5 5 4 4 4 4 4 4 4 4 4 4 4 5 5 5 5 6 6 6 6 7 7 8 8 8 9 9 9 9 9 10 10 11 11 12 12 12 12
6 5 5 5 4 4 4 4 4 4 4 4 3 3 3 3 4 4 4 5 5 5 5 6 6 7 7 7 8 8 8 9 9 8 9 9 10 10 11 11 11 11 11
5 5 4 4 4 4 4 4 4 4 4 4 4 3 3 3 3 4 4 4 5 5 5 5 6 6 7 7 8 8 8 8 8 8 8 9 9 10 10 11 11 11 11
5 5 4 4 4 5 5 4 4 4 4 4 4 4 3 3 4 4 4 4 4 5 5 5 6 6 7 7 8 8 8 8 8 8 8 8 9 9 10 10 10 11 11
5 5 5 5 5 5 5 5 5 4 4 4 4 4 4 4 4 4 4 4 4 5 5 5 6 6 7 7 8 8 8 8 8 8 8 8 8 9 9 10 10 10 11
Wind_Speed
7 7 7 7 8 10 10 7 4 2 3 4 5 4 3 2 4 5 6 7 7 8 6 5 4 4 3 2 1 2 1 1 1 1 3 4 5 6 6 6 6 8 9
10 9 10 11 11 11 9 6 5 3 4 4 4 4 3 2 3 4 5 7 7 7 6 7 5 4 3 2 1 1 1 1 1 2 1 4 5 4 3 3 4 5 5
12 12 14 13 13 13 11 9 8 7 7 5 3 2 2 3 2 1 3 5 7 7 7 8 6 5 4 3 2 2 3 2 1 2 3 1 2 4 4 3 3 3 4
9 10 12 12 12 11 10 9 9 10 10 9 8 7 5 3 3 3 3 4 5 7 8 9 8 7 5 5 4 3 3 3 2 1 2 3 4 2 4 4 4 4 5
7 9 9 9 9 8 7 6 7 9 9 10 10 9 7 5 4 5 5 4 3 5 6 8 8 8 6 6 5 4 4 3 3 3 2 2 2 4 4 6 5 5 4
4 5 5 6 5 5 5 5 6 7 7 7 8 8 8 8 7 7 7 5 4 4 5 7 8 8 7 6 6 5 5 4 4 3 4 4 3 4 4 5 5 6 5
2 3 3 3 1 1 2 3 5 5 6 7 7 6 6 6 6 6 6 6 4 4 6 4 6 7 7 8 7 6 6 5 5 5 5 5 5 5 4 5 5 5 4
1 2 2 2 3 3 2 1 1 1 3 4 4 4 4 4 4 5 5 5 5 5 6 5 4 5 7 7 7 5 6 5 6 6 6 5 5 5 5 5 4 4 3
3 4 5 6 6 6 6 5 4 3 2 2 3 3 4 4 5 6 5 5 5 6 8 8 6 4 5 7 7 6 7 6 6 7 7 5 5 5 5 5 5 4 4
5 6 7 8 8 8 8 7 6 6 6 7 6 5 6 6 5 5 6 6 6 6 7 8 8 7 6 6 7 7 7 8 7 6 7 6 5 5 5 5 5 6 5
7 8 8 8 8 7 6 7 7 8 8 9 8 8 8 8 7 6 7 7 6 6 6 7 7 8 8 7 7 8 8 9 8 7 7 8 7 5 5 4 4 5 5
9 9 8 7 5 5 6 8 9 9 10 10 9 10 10 9 8 8 9 8 8 7 7 7 7 8 8 7 7 8 8 8 9 9 8 8 7 7 6 5 5 5 5
9 7 7 6 6 6 8 9 10 11 12 11 11 11 10 10 10 10 10 9 9 9 8 7 8 8 8 8 8 8 8 8 9 9 9 9 8 8 6 6 5 4 4
7 7 7 8 8 9 9 10 11 11 11 11 11 12 13 13 12 11 10 10 10 10 10 9 8 9 8 9 9 7 7 7 8 8 10 10 9 9 8 6 6 5 5
9 10 10 10 10 10 11 11 11 11 11 11 12 13 13 13 12 11 11 11 11 12 11 10 10 9 8 9 9 7 7 7 7 8 9 10 11 11 9 6 6 5 5
12 13 13 13 12 13 13 12 12 12 11 11 12 12 12 11 11 11 11 10 10 11 10 11 11 11 10 12 13 9 7 7 8 8 8 8 10 11 11 10 8 7 7
16 16 14 14 14 14 14 14 14 13 12 12 12 12 12 12 12 11 9 9 10 9 10 11 11 12 13 16 16 15 9 8 8 8 7 8 9 10 7 6 4 3 5
15 15 14 14 13 13 13 13 13 13 13 13 13 12 11 12 11 9 9 9 8 8 8 9 10 11 13 16 16 15 9 8 8 8 8 9 9 10 10 7 4 3 3
16 14 14 14 13 14 14 15 15 15 15 14 13 12 11 11 10 10 9 8 7 8 8 8 9 10 11 15 15 13 6 6 8 8 7 9 11 14 14 9 7 6 5
11 11 11 12 13 14 14 16 17 16 16 16 14 12 11 10 10 10 9 7 7 8 8 9 9 10 10 13 15 13 6 6 6 6 6 10 13 16 16 11 10 10 7
11 11 12 13 15 15 15 16 16 17 17 17 15 13 12 11 10 9 7 7 8 8 8 9 9 9 10 12 14 14 7 6 6 4 4 5 14 17 17 13 9 12 11
12 13 13 15 15 16 16 18 18 18 17 17 17 15 13 13 12 8 7 8 8 8 8 8 8 7 8 10 12 15 13 9 6 4 3 3 11 16 17 12 13 17 14
14 13 15 18 18 15 15 18 18 18 17 16 16 14 13 12 11 9 9 8 7 7 7 7 7 6 5 7 13 14 14 12 6 4 3 3 9 12 12 14 19 15 11
14 16 18 19 19 17 16 16 17 16 15 15 14 12 11 10 9 8 8 8 7 7 7 7 7 6 5 5 5 5 6 8 6 4 3 5 9 8 8 13 14 9 10
14 16 18 19 20 19 18 17 16 15 15 14 12 10 9 9 8 7 6 7 6 7 7 6 6 5 5 7 10 9 7 7 6 6 3 3 4 5 7 8 7 7 9
17 17 18 19 19 18 18 16 15 14 13 11 10 8 7 6 6 5 5 6 7 9 11 10 7 5 6 6 10 12 12 12 12 7 5 5 6 6 8 9 7 6 9
Wind_Direction
59 59 55 54 64 62 54 51 19 2 300 268 263 266 247 214 172 178 176 172 166 160 150 141 131 127 132 153 172 178 181 223 177 46 322 297 270 253 249 247 250 252 249
38 46 54 54 53 61 55 30 355 318 271 249 252 244 233 224 191 185 184 180 171 166 157 151 152 151 144 141 151 164 161 220 128 126 17 336 332 331 295 280 260 265 265
31 38 49 49 50 46 39 37 27 16 8 347 309 323 14 16 22 246 216 205 183 172 163 165 162 166 163 180 198 188 171 183 182 151 151 162 281 311 304 293 286 296 296
30 39 46 46 47 45 39 32 29 29 25 19 24 33 29 7 331 299 272 252 209 184 176 174 172 174 176 188 205 193 178 166 190 210 183 188 191 240 304 308 298 298 296
34 45 45 43 42 40 42 38 33 33 29 30 32 32 28 6 344 345 346 317 275 235 208 189 179 180 186 196 202 197 197 188 190 196 206 219 213 208 231 286 305 311 285
57 57 52 46 38 29 28 28 32 29 25 29 32 33 22 8 4 358 350 338 318 297 262 220 197 187 188 198 202 201 208 216 218 217 210 207 214 211 213 252 286 297 295
98 77 65 60 53 36 31 34 37 22 14 22 25 25 14 358 351 340 338 340 336 328 322 270 220 200 195 197 196 202 218 221 227 231 229 223 222 217 213 237 264 275 292
157 151 180 206 223 217 198 171 89 25 5 11 4 3 0 348 330 326 323 322 319 307 321 320 269 228 207 204 202 208 215 218 225 233 232 233 237 226 215 215 232 271 286
201 213 224 225 225 221 215 205 196 216 245 256 270 286 304 312 311 314 315 314 317 321 332 330 322 282 243 223 210 214 219 220 225 231 235 237 243 236 227 217 208 218 257
229 238 241 236 228 216 208 200 201 214 228 234 240 243 250 260 272 290 297 300 306 317 326 329 327 316 287 250 227 222 223 221 228 226 230 236 240 239 233 222 211 206 217
268 266 266 262 250 228 213 214 220 227 237 240 241 245 248 248 253 263 272 277 284 294 302 308 313 314 305 287 258 239 227 223 227 228 224 230 230 233 236 225 214 210 209
299 299 305 309 300 269 247 243 241 240 244 244 242 244 248 248 247 252 259 263 270 277 280 287 293 297 301 301 288 272 254 232 226 223 220 227 228 230 231 225 222 217 210
315 319 320 313 297 276 261 255 251 248 249 247 244 247 251 249 248 249 252 255 259 266 271 274 277 280 284 289 289 283 274 253 236 224 216 219 218 228 229 223 224 224 221
325 321 309 294 281 271 264 260 256 250 249 246 242 242 244 244 245 246 247 250 252 256 261 261 261 266 271 276 279 279 282 274 258 239 224 216 212 218 219 219 223 223 225
315 308 297 286 278 272 267 262 259 256 250 245 240 239 240 238 237 238 242 245 247 251 251 252 256 258 262 266 262 260 276 279 280 263 238 223 212 209 206 207 214 214 219
309 306 299 292 287 281 277 272 268 263 255 247 242 238 231 227 226 229 232 236 241 245 247 248 251 255 261 261 264 263 266 268 271 270 252 227 205 202 202 206 208 207 207
309 305 300 292 289 287 284 281 277 272 261 253 247 237 229 224 220 220 219 224 233 240 245 248 248 249 252 253 258 260 257 257 262 262 243 220 201 187 182 185 180 190 195
306 304 302 300 299 297 298 296 293 288 279 269 260 250 238 230 221 215 216 223 227 234 240 245 247 246 251 250 249 251 251 253 258 257 238 218 192 187 175 166 147 119 105
306 311 314 316 319 320 321 319 314 307 299 290 279 266 250 238 226 219 218 221 227 236 238 239 242 243 250 252 248 240 236 247 259 259 246 220 196 187 173 159 147 125 101
318 322 325 324 324 322 322 319 314 310 305 302 296 287 271 251 237 225 223 224 225 235 240 241 238 238 243 250 245 230 215 235 256 263 252 221 200 182 171 163 157 145 133
321 322 322 322 320 319 317 312 308 304 301 297 294 291 283 269 253 238 230 232 237 238 239 241 240 238 238 245 239 223 205 214 234 249 246 222 200 181 173 166 165 154 139
322 323 324 323 320 317 316 312 308 304 300 296 289 284 280 274 272 253 244 239 237 237 238 239 243 243 238 233 230 221 213 205 205 224 232 216 191 180 172 164 154 143 133
324 325 325 323 322 320 316 312 310 308 306 302 294 288 282 274 266 256 252 247 234 231 232 227 233 241 238 232 228 220 214 209 199 203 204 168 175 174 171 160 151 146 138
326 328 328 326 324 323 319 313 312 313 310 306 301 292 285 280 271 261 251 244 232 224 222 219 223 231 236 230 214 203 202 200 196 190 170 143 155 171 164 157 155 150 147
328 328 326 324 322 322 320 318 317 317 315 312 306 299 290 282 276 267 255 242 228 214 206 208 206 209 227 227 200 184 188 187 184 159 144 137 152 161 156 159 155 141 137
328 327 325 323 322 322 321 320 319 319 317 315 312 306 300 294 283 279 281 256 240 232 224 216 201 206 221 223 195 191 186 178 167 156 159 161 159 161 161 162 151 141 143
Height
1497 1495 1493 1491 1488 1483 1478 1476 1477 1478 1483 1489 1493 1495 1497 1498 1498 1498 1499 1500 1499 1498 1497 1496 1496 1496 1496 1495 1494 1493 1492 1492 1491 1491 1490 1491 1491 1491 1492 1493 1494 1494 1495
1498 1495 1490 1488 1487 1484 1483 1482 1483 1485 1487 1491 1494 1496 1497 1497 1496 1497 1497 1498 1498 1497 1495 1494 1493 1493 1493 1492 1491 1491 1490 1488 1487 1487 1486 1486 1487 1487 1488 1488 1489 1490 1490
1501 1495 1491 1490 1489 1488 1489 1488 1489 1490 1491 1491 1493 1495 1495 1495 1496 1496 1496 1496 1495 1495 1493 1492 1492 1491 1491 1490 1489 1488 1487 1486 1485 1484 1484 1484 1484 1483 1483 1484 1485 1485 1486
1504 1499 1495 1494 1493 1493 1494 1493 1493 1493 1492 1492 1492 1493 1493 1493 1494 1493 1493 1493 1493 1492 1491 1490 1490 1489 1489 1488 1487 1486 1484 1483 1481 1481 1481 1482 1482 1482 1479 1478 1480 1480 1481
1507 1502 1500 1499 1498 1498 1498 1498 1497 1495 1494 1493 1492 1492 1491 1491 1490 1490 1489 1489 1489 1488 1488 1487 1487 1487 1487 1486 1484 1483 1482 1480 1478 1477 1477 1477 1478 1478 1478 1475 1474 1475 1476
1509 1505 1504 1503 1502 1502 1501 1500 1498 1497 1495 1494 1492 1491 1489 1488 1486 1485 1485 1484 1483 1483 1483 1483 1483 1483 1483 1483 1482 1480 1479 1477 1475 1474 1473 1473 1473 1473 1474 1473 1471 1470 1470
1510 1507 1506 1505 1505 1503 1502 1500 1498 1497 1495 1493 1491 1489 1487 1486 1484 1481 1480 1478 1478 1477 1477 1476 1477 1477 1478 1478 1478 1477 1476 1474 1472 1471 1470 1470 1469 1469 1469 1469 1468 1466 1465
1511 1509 1508 1507 1505 1504 1502 1500 1497 1495 1494 1492 1490 1487 1485 1483 1480 1478 1475 1473 1472 1470 1470 1469 1470 1471 1472 1473 1473 1473 1472 1470 1469 1467 1467 1466 1465 1465 1465 1465 1465 1463 1462
1511 1509 1507 1506 1504 1501 1499 1497 1495 1493 1491 1488 1486 1484 1482 1479 1476 1473 1471 1469 1467 1465 1464 1463 1463 1464 1465 1466 1467 1467 1467 1466 1465 1463 1463 1462 1462 1461 1461 1461 1461 1461 1459
1509 1507 1505 1502 1499 1496 1494 1492 1491 1489 1487 1485 1482 1480 1477 1475 1472 1469 1467 1464 1462 1461 1459 1458 1457 1457 1458 1459 1460 1460 1461 1460 1460 1459 1458 1458 1458 1457 1456 1456 1456 1456 1456
1507 1504 1501 1497 1494 1492 1490 1488 1486 1484 1482 1480 1477 1475 1472 1470 1467 1465 1463 1460 1458 1456 1454 1452 1451 1450 1450 1451 1452 1453 1453 1454 1454 1454 1454 1454 1453 1453 1452 1452 1452 1451 1451
1506 1502 1498 1494 1491 1488 1486 1484 1482 1479 1477 1474 1471 1468 1466 1463 1461 1459 1458 1456 1453 1451 1449 1447 1445 1444 1444 1444 1444 1444 1446 1447 1447 1448 1448 1448 1448 1448 1448 1447 1447 1447 1446
1503 1499 1495 1492 1488 1485 1482 1479 1475 1472 1469 1466 1463 1460 1458 1456 1454 1452 1451 1449 1447 1445 1444 1442 1440 1439 1438 1437 1437 1437 1438 1439 1440 1441 1442 1442 1443 1443 1442 1442 1442 1441 1441
1499 1495 1491 1487 1483 1479 1475 1471 1467 1464 1460 1457 1454 1452 1449 1448 1446 1445 1443 1442 1441 1439 1438 1436 1435 1433 1432 1431 1431 1431 1431 1432 1432 1434 1435 1436 1437 1437 1437 1436 1436 1435 1435
1493 1488 1484 1479 1474 1470 1466 1461 1457 1454 1450 1447 1444 1442 1440 1439 1437 1436 1435 1434 1433 1432 1431 1430 1429 1428 1427 1425 1425 1425 1425 1425 1425 1426 1427 1429 1430 1431 1431 1431 1430 1430 1429
1486 1481 1476 1471 1466 1461 1455 1451 1446 1443 1440 1436 1434 1432 1430 1429 1428 1427 1426 1426 1425 1424 1423 1422 1422 1421 1421 1420 1419 1419 1418 1418 1418 1419 1420 1422 1424 1425 1426 1425 1425 1424 1423
1482 1475 1470 1464 1458 1452 1446 1441 1436 1432 1428 1425 1422 1421 1419 1418 1417 1417 1416 1416 1416 1415 1415 1414 1414 1414 1414 1414 1413 1413 1413 1412 1412 1412 1413 1415 1418 1420 1420 1420 1420 1419 1418
1476 1470 1463 1457 1451 1445 1438 1432 1427 1422 1417 1413 1411 1409 1407 1406 1405 1405 1405 1406 1406 1406 1405 1405 1406 1405 1406 1406 1407 1407 1407 1406 1406 1405 1406 1408 1411 1414 1415 1416 1416 1415 1415
1472 1465 1458 1451 1444 1437 1430 1423 1417 1412 1407 1403 1399 1397 1395 1394 1393 1393 1393 1394 1395 1395 1396 1396 1397 1397 1398 1399 1400 1400 1401 1400 1400 1399 1399 1402 1405 1408 1410 1412 1413 1413 1413
1466 1459 1451 1444 1436 1429 1422 1414 1407 1401 1396 1391 1387 1385 1383 1381 1381 1381 1382 1383 1384 1385 1386 1387 1388 1389 1389 1391 1392 1393 1394 1394 1394 1393 1393 1396 1399 1403 1406 1408 1410 1411 1412
1460 1453 1445 1437 1429 1421 1414 1406 1399 1392 1386 1381 1376 1373 1371 1369 1369 1369 1370 1372 1373 1374 1376 1377 1378 1380 1381 1383 1385 1387 1388 1389 1388 1388 1387 1389 1393 1398 1402 1406 1409 1410 1412
1453 1445 1437 1429 1422 1414 1406 1398 1391 1384 1377 1371 1366 1362 1360 1359 1358 1358 1359 1361 1363 1364 1366 1368 1369 1371 1373 1375 1377 1380 1382 1383 1383 1382 1382 1384 1387 1393 1399 1403 1408 1410 1413
1448 1440 1431 1423 1415 1408 1400 1392 1384 1376 1369 1363 1358 1353 1351 1349 1348 1348 1349 1351 1353 1355 1357 1360 1361 1363 1366 1368 1371 1374 1376 1378 1378 1378 1378 1380 1383 1389 1396 1401 1406 1410 1413
1443 1434 1426 1417 1409 1402 1395 1387 1379 1371 1364 1357 1352 1347 1344 1342 1341 1340 1341 1343 1345 1347 1350 1353 1355 1357 1360 1362 1365 1368 1370 1372 1374 1375 1375 1377 1379 1385 1392 1399 1405 1409 1413
1439 1430 1422 1413 1405 1397 1390 1383 1375 1367 1360 1353 1348 1343 1340 1337 1336 1335 1336 1337 1339 1341 1345 1348 1350 1353 1355 1358 1361 1363 1366 1368 1370 1371 1373 1374 1377 1381 1388 1396 1403 1408 1413
1435 1426 1418 1410 1402 1394 1387 1379 1372 1365 1358 1351 1346 1341 1338 1335 1333 1333 1333 1334 1335 1338 1341 1344 1347 1349 1352 1355 1357 1360 1362 1365 1366 1368 1370 1372 1375 1379 1386 1394 1401 1407 1413